This is the latest recevied weather packets stored in our database for station/object K4JOZ. If no packets are shown the sender has not sent any weather packets the latest 1 day(s).
| Time | Temp. | Humidity | Pressure | Rain* | Wind** | Luminosity | Snow |
|---|---|---|---|---|---|---|---|
| 1778007169 | 23.33° C | 47% | 1010.7 hPa | 0 mm | 2.68 m/s, 311° | - | - |
| 1778006269 | 23.33° C | 46% | 1011.2 hPa | 0 mm | 0 m/s | - | - |
| 1778005369 | 23.33° C | 48% | 1011.3 hPa | 0 mm | 0.89 m/s, 263° | - | - |
| 1778004469 | 23.33° C | 47% | 1011.3 hPa | 0 mm | 1.34 m/s, 204° | - | - |
| 1778003569 | 23.33° C | 46% | 1011.4 hPa | 0 mm | 0.89 m/s, 205° | - | - |
| 1778002669 | 23.33° C | 47% | 1011.8 hPa | 0 mm | 1.79 m/s, 208° | - | - |
| 1778001769 | 23.33° C | 46% | 1012.1 hPa | 0 mm | 1.34 m/s, 271° | - | - |
| 1778000869 | 22.78° C | 48% | 1012.3 hPa | 0 mm | 3.13 m/s, 207° | - | - |
| 1777999969 | 22.78° C | 47% | 1012.5 hPa | 0 mm | 0.89 m/s, 204° | - | - |
| 1777999069 | 22.78° C | 47% | 1012.5 hPa | 0 mm | 2.68 m/s, 196° | - | - |
| 1777998169 | 22.22° C | 54% | 1012.4 hPa | 0 mm | 2.24 m/s, 197° | - | - |
| 1777997269 | 22.22° C | 53% | 1012.4 hPa | 0 mm | 0.89 m/s, 317° | - | - |
| 1777996369 | 21.67° C | 54% | 1012.7 hPa | 0 mm | 2.68 m/s, 196° | - | - |
| 1777995469 | 21.67° C | 51% | 1013.1 hPa | 0 mm | 2.24 m/s, 218° | - | - |
| 1777994569 | 21.11° C | 53% | 1013 hPa | 0 mm | 0.45 m/s, 205° | - | - |
| 1777993669 | 20.56° C | 55% | 1013.1 hPa | 0 mm | 1.79 m/s, 250° | - | - |
| 1777992803 | 20.56° C | 56% | 1013 hPa | 0 mm | 2.24 m/s, 163° | - | - |
| 1777992769 | 20.56° C | 56% | 1013 hPa | 0 mm | 2.24 m/s, 163° | - | - |
| 1777991869 | 20° C | 58% | 1013.1 hPa | 0 mm | 1.34 m/s, 198° | - | - |
| 1777990969 | 19.44° C | 62% | 1013.1 hPa | 0 mm | 0.45 m/s, 144° | - | - |
| 1777990069 | 18.89° C | 64% | 1013.2 hPa | 0 mm | 1.79 m/s, 129° | - | - |
| 1777989169 | 17.78° C | 66% | 1013 hPa | 0 mm | 0.89 m/s, 17° | - | - |
| 1777988269 | 17.78° C | 67% | 1013.2 hPa | 0 mm | 0.45 m/s, 109° | - | - |
| 1777987369 | 16.67° C | 64% | 1013.3 hPa | 0 mm | 0.89 m/s, 109° | - | - |
| 1777986469 | 15.56° C | 57% | 1013.3 hPa | 0 mm | 0.45 m/s, 109° | - | - |
* Rain latest hour (hover to see other rain measurements)
** Current wind speed in m/s (hover to see current wind gust speed)